CSB421 KGSO-KCVG

Flight info

Callsign CSB421
Flight time 1h 0m
Altitude 30000
Route TRSHA1 BAWDS CUBIM JAKIE7
Aircraft B763/H-SDE3FGHIM3RWXY/LB1

Departure

Time 2026-05-07 04:15
Airport Piedmont Triad International Airport (KGSO)

Arrival

Time 2026-05-07 05:15
Airport Cincinnati Northern Kentucky International Airport (KCVG)
Time Latitude Longitude Altitude Speed Heading
2026-05-07 03:56 36.11069 -79.92543 895 ft 0 kts 315°
2026-05-07 04:07 36.11068 -79.92542 895 ft 1 kts 316°
2026-05-07 04:07 36.11058 -79.92529 894 ft 2 kts 313°
2026-05-07 04:07 36.11052 -79.92521 894 ft 2 kts 315°
2026-05-07 04:08 36.11043 -79.92506 893 ft 2 kts 288°
2026-05-07 04:08 36.11040 -79.92487 893 ft 2 kts 270°
2026-05-07 04:08 36.11042 -79.92470 892 ft 2 kts 251°
2026-05-07 04:08 36.11048 -79.92453 892 ft 1 kts 231°
2026-05-07 04:09 36.11053 -79.92447 892 ft 1 kts 225°
2026-05-07 04:09 36.11054 -79.92446 892 ft 0 kts 225°
2026-05-07 04:11 36.11050 -79.92451 892 ft 2 kts 225°
2026-05-07 04:11 36.11024 -79.92484 892 ft 6 kts 225°
2026-05-07 04:11 36.10984 -79.92512 892 ft 5 kts 172°
2026-05-07 04:12 36.10949 -79.92481 892 ft 6 kts 123°
2026-05-07 04:12 36.10954 -79.92429 892 ft 6 kts 58°
2026-05-07 04:12 36.10991 -79.92378 892 ft 9 kts 46°
2026-05-07 04:12 36.11039 -79.92316 892 ft 10 kts 46°
2026-05-07 04:13 36.11081 -79.92262 892 ft 8 kts 46°
2026-05-07 04:13 36.11119 -79.92213 892 ft 8 kts 52°
2026-05-07 04:13 36.11109 -79.92158 892 ft 7 kts 137°
2026-05-07 04:13 36.11067 -79.92111 892 ft 9 kts 137°
2026-05-07 04:14 36.11023 -79.92061 891 ft 6 kts 141°
2026-05-07 04:14 36.10991 -79.92063 891 ft 5 kts 214°
2026-05-07 04:14 36.10979 -79.92077 891 ft 0 kts 226°
2026-05-07 04:14 36.10891 -79.92189 891 ft 46 kts 226°
2026-05-07 04:15 36.10524 -79.92657 892 ft 104 kts 226°
2026-05-07 04:15 36.09896 -79.93457 899 ft 152 kts 225°
2026-05-07 04:15 36.09128 -79.94435 1372 ft 162 kts 227°
2026-05-07 04:15 36.08489 -79.95537 2071 ft 164 kts 251°
2026-05-07 04:16 36.08236 -79.97016 2358 ft 191 kts 261°
2026-05-07 04:16 36.08030 -79.98737 2897 ft 210 kts 261°
2026-05-07 04:16 36.07802 -80.00577 3506 ft 226 kts 261°
2026-05-07 04:16 36.07561 -80.02532 4168 ft 241 kts 261°
2026-05-07 04:17 36.07302 -80.04634 4971 ft 252 kts 261°
2026-05-07 04:17 36.07073 -80.06763 5915 ft 256 kts 268°
2026-05-07 04:17 36.07469 -80.08887 6841 ft 265 kts 295°
2026-05-07 04:17 36.08714 -80.10587 7720 ft 280 kts 322°
2026-05-07 04:18 36.10412 -80.11763 8572 ft 285 kts 321°
2026-05-07 04:18 36.12011 -80.13234 9444 ft 285 kts 313°
2026-05-07 04:18 36.13488 -80.14864 10333 ft 287 kts 310°
2026-05-07 04:18 36.14925 -80.16612 11031 ft 296 kts 308°
2026-05-07 04:19 36.16369 -80.18481 11654 ft 309 kts 307°
2026-05-07 04:19 36.17856 -80.20467 12214 ft 324 kts 307°
2026-05-07 04:19 36.19371 -80.22518 13281 ft 322 kts 306°
2026-05-07 04:19 36.20862 -80.24567 14275 ft 321 kts 306°
2026-05-07 04:20 36.22355 -80.26630 15103 ft 324 kts 305°
2026-05-07 04:20 36.23816 -80.28653 16091 ft 321 kts 305°
2026-05-07 04:20 36.25300 -80.30721 16884 ft 324 kts 305°
2026-05-07 04:21 36.28263 -80.34856 18537 ft 330 kts 304°
2026-05-07 04:21 36.29787 -80.36991 19340 ft 332 kts 304°
2026-05-07 04:21 36.31326 -80.39143 20033 ft 337 kts 303°
2026-05-07 04:21 36.32896 -80.41348 20544 ft 346 kts 304°
2026-05-07 04:22 36.34510 -80.43626 21025 ft 355 kts 302°
2026-05-07 04:22 36.36069 -80.46026 21624 ft 359 kts 302°
2026-05-07 04:22 36.37640 -80.48427 22290 ft 363 kts 302°
2026-05-07 04:22 36.39241 -80.50892 22847 ft 368 kts 301°
2026-05-07 04:23 36.40857 -80.53372 23478 ft 373 kts 301°
2026-05-07 04:23 36.42465 -80.55841 24413 ft 372 kts 301°
2026-05-07 04:23 36.44069 -80.58312 25256 ft 372 kts 300°
2026-05-07 04:23 36.45697 -80.60820 26078 ft 373 kts 300°
2026-05-07 04:24 36.47333 -80.63374 26558 ft 381 kts 299°
2026-05-07 04:24 36.48982 -80.65942 27726 ft 371 kts 297°
2026-05-07 04:24 36.50420 -80.68619 28134 ft 370 kts 288°
2026-05-07 04:24 36.51335 -80.71565 28908 ft 359 kts 277°
2026-05-07 04:25 36.51881 -80.74554 29871 ft 352 kts 276°
2026-05-07 04:25 36.52409 -80.77511 29930 ft 353 kts 276°
2026-05-07 04:25 36.53428 -80.83362 29945 ft 341 kts 275°
2026-05-07 04:26 36.54402 -80.89116 29959 ft 341 kts 275°
2026-05-07 04:26 36.55375 -80.94912 29965 ft 343 kts 276°
2026-05-07 04:27 36.56343 -81.00710 29973 ft 340 kts 275°
2026-05-07 04:27 36.57295 -81.06447 29983 ft 343 kts 276°
2026-05-07 04:28 36.58250 -81.12222 29972 ft 341 kts 275°
2026-05-07 04:28 36.59193 -81.17953 29974 ft 339 kts 275°
2026-05-07 04:29 36.60138 -81.23714 29977 ft 340 kts 275°
2026-05-07 04:29 36.61087 -81.29506 29972 ft 340 kts 275°
2026-05-07 04:30 36.62023 -81.35257 29969 ft 337 kts 276°
2026-05-07 04:30 36.62952 -81.40966 29962 ft 338 kts 275°
2026-05-07 04:31 36.63880 -81.46697 29966 ft 341 kts 276°
2026-05-07 04:31 36.64812 -81.52469 29963 ft 338 kts 275°
2026-05-07 04:32 36.65735 -81.58190 29945 ft 338 kts 274°
2026-05-07 04:32 36.66655 -81.63931 29950 ft 340 kts 275°
2026-05-07 04:33 36.67576 -81.69689 29975 ft 337 kts 275°
2026-05-07 04:33 36.68492 -81.75442 29977 ft 340 kts 274°
2026-05-07 04:34 36.69403 -81.81159 29977 ft 335 kts 274°
2026-05-07 04:34 36.70301 -81.86829 29973 ft 334 kts 274°
2026-05-07 04:35 36.71198 -81.92515 29977 ft 335 kts 275°
2026-05-07 04:35 36.72095 -81.98213 29989 ft 335 kts 274°
2026-05-07 04:36 36.72986 -82.03902 29995 ft 335 kts 274°
2026-05-07 04:36 36.73886 -82.09658 29994 ft 338 kts 275°
2026-05-07 04:37 36.74778 -82.15365 29985 ft 332 kts 274°
2026-05-07 04:37 36.75661 -82.21063 29978 ft 335 kts 274°
2026-05-07 04:38 36.76548 -82.26793 29976 ft 335 kts 275°
2026-05-07 04:38 36.77428 -82.32481 29975 ft 333 kts 273°
2026-05-07 04:39 36.78306 -82.38200 29980 ft 335 kts 274°
2026-05-07 04:39 36.79181 -82.43903 29975 ft 334 kts 274°
2026-05-07 04:40 36.80050 -82.49596 29980 ft 334 kts 274°
2026-05-07 04:40 36.80917 -82.55288 29984 ft 334 kts 274°
2026-05-07 04:41 36.81779 -82.60977 29964 ft 335 kts 274°
2026-05-07 04:41 36.82643 -82.66685 29998 ft 334 kts 273°
2026-05-07 04:42 36.83511 -82.72453 29995 ft 334 kts 273°
2026-05-07 04:42 36.84368 -82.78145 29995 ft 335 kts 273°
2026-05-07 04:43 36.85222 -82.83847 29992 ft 334 kts 273°
2026-05-07 04:43 36.86070 -82.89542 29994 ft 334 kts 274°
2026-05-07 04:44 36.86971 -82.95197 29984 ft 338 kts 278°
2026-05-07 04:44 36.87897 -82.97958 30003 ft 352 kts 288°
2026-05-07 04:44 36.89312 -83.00492 30003 ft 369 kts 298°
2026-05-07 04:45 36.91221 -83.02763 30002 ft 387 kts 308°
2026-05-07 04:45 36.93525 -83.04611 29996 ft 407 kts 317°
2026-05-07 04:45 36.96226 -83.06018 30009 ft 425 kts 326°
2026-05-07 04:45 36.98984 -83.07258 29994 ft 422 kts 323°
2026-05-07 04:46 37.04401 -83.09996 29993 ft 418 kts 322°
2026-05-07 04:46 37.09716 -83.12841 29987 ft 411 kts 321°
2026-05-07 04:47 37.14987 -83.15743 29983 ft 415 kts 320°
2026-05-07 04:47 37.20310 -83.18692 29975 ft 413 kts 320°
2026-05-07 04:48 37.25567 -83.21626 29993 ft 414 kts 320°
2026-05-07 04:48 37.30815 -83.24558 29992 ft 411 kts 320°
2026-05-07 04:49 37.36083 -83.27516 30002 ft 416 kts 320°
2026-05-07 04:49 37.41365 -83.30483 29803 ft 421 kts 321°
2026-05-07 04:50 37.44025 -83.31973 29540 ft 417 kts 320°
2026-05-07 04:50 37.46681 -83.33459 29272 ft 409 kts 320°
2026-05-07 04:50 37.49269 -83.34909 29002 ft 402 kts 320°
2026-05-07 04:50 37.51799 -83.36336 28754 ft 398 kts 320°
2026-05-07 04:51 37.54332 -83.37752 28496 ft 399 kts 320°
2026-05-07 04:51 37.56863 -83.39164 28251 ft 402 kts 320°
2026-05-07 04:51 37.59424 -83.40587 27996 ft 398 kts 320°
2026-05-07 04:51 37.61930 -83.41979 27711 ft 396 kts 320°
2026-05-07 04:52 37.64454 -83.43387 27369 ft 395 kts 320°
2026-05-07 04:52 37.66962 -83.44784 27003 ft 393 kts 320°
2026-05-07 04:52 37.69454 -83.46175 26623 ft 391 kts 320°
2026-05-07 04:52 37.71916 -83.47550 26244 ft 388 kts 321°
2026-05-07 04:53 37.74376 -83.48919 25854 ft 382 kts 320°
2026-05-07 04:53 37.76788 -83.50272 25449 ft 382 kts 320°
2026-05-07 04:53 37.79242 -83.51648 25031 ft 381 kts 321°
2026-05-07 04:53 37.81630 -83.52982 24667 ft 377 kts 321°
2026-05-07 04:54 37.84036 -83.54330 24213 ft 373 kts 321°
2026-05-07 04:54 37.86304 -83.55735 23823 ft 358 kts 313°
2026-05-07 04:54 37.88227 -83.57610 23438 ft 334 kts 302°
2026-05-07 04:54 37.89806 -83.59699 23090 ft 329 kts 300°
2026-05-07 04:55 37.91350 -83.61823 22725 ft 329 kts 300°
2026-05-07 04:55 37.92870 -83.63972 22358 ft 328 kts 299°
2026-05-07 04:55 37.94364 -83.66125 22019 ft 327 kts 298°
2026-05-07 04:55 37.95810 -83.68221 21698 ft 321 kts 297°
2026-05-07 04:56 37.97252 -83.70338 21353 ft 319 kts 298°
2026-05-07 04:56 37.98674 -83.72435 21012 ft 319 kts 297°
2026-05-07 04:56 38.00106 -83.74555 20687 ft 319 kts 297°
2026-05-07 04:56 38.01541 -83.76679 20345 ft 315 kts 297°
2026-05-07 04:57 38.02972 -83.78805 19988 ft 314 kts 297°
2026-05-07 04:57 38.04377 -83.80894 19637 ft 313 kts 297°
2026-05-07 04:57 38.05786 -83.82996 19270 ft 314 kts 297°
2026-05-07 04:57 38.07194 -83.85090 18944 ft 312 kts 297°
2026-05-07 04:58 38.08598 -83.87189 18565 ft 313 kts 297°
2026-05-07 04:58 38.10006 -83.89285 18179 ft 310 kts 297°
2026-05-07 04:58 38.11399 -83.91369 17852 ft 307 kts 298°
2026-05-07 04:58 38.12894 -83.93340 17447 ft 322 kts 309°
2026-05-07 04:59 38.14823 -83.94859 17100 ft 328 kts 317°
2026-05-07 04:59 38.16827 -83.96300 16764 ft 326 kts 317°
2026-05-07 04:59 38.18794 -83.97715 16439 ft 325 kts 318°
2026-05-07 04:59 38.20770 -83.99136 16116 ft 323 kts 318°
2026-05-07 05:00 38.22701 -84.00526 15784 ft 322 kts 319°
2026-05-07 05:00 38.24637 -84.01915 15421 ft 319 kts 319°
2026-05-07 05:00 38.26589 -84.03322 15049 ft 317 kts 320°
2026-05-07 05:00 38.28502 -84.04694 14691 ft 316 kts 319°
2026-05-07 05:01 38.30394 -84.06058 14349 ft 313 kts 320°
2026-05-07 05:01 38.32280 -84.07413 13977 ft 308 kts 321°
2026-05-07 05:01 38.34141 -84.08759 13598 ft 310 kts 321°
2026-05-07 05:01 38.36031 -84.10119 13251 ft 307 kts 321°
2026-05-07 05:02 38.37878 -84.11451 12905 ft 307 kts 322°
2026-05-07 05:02 38.39734 -84.12792 12589 ft 306 kts 322°
2026-05-07 05:02 38.41568 -84.14117 12244 ft 305 kts 322°
2026-05-07 05:02 38.43425 -84.15456 11922 ft 303 kts 322°
2026-05-07 05:03 38.45282 -84.16807 11359 ft 312 kts 323°
2026-05-07 05:03 38.47156 -84.18163 10935 ft 308 kts 323°
2026-05-07 05:03 38.48982 -84.19476 10887 ft 293 kts 323°
2026-05-07 05:03 38.50708 -84.20721 10874 ft 279 kts 323°
2026-05-07 05:04 38.52369 -84.21922 10837 ft 266 kts 322°
2026-05-07 05:04 38.53969 -84.23083 10727 ft 258 kts 322°
2026-05-07 05:04 38.55513 -84.24209 10352 ft 257 kts 322°
2026-05-07 05:04 38.57073 -84.25346 9995 ft 255 kts 323°
2026-05-07 05:05 38.58729 -84.26231 9722 ft 267 kts 336°
2026-05-07 05:05 38.60511 -84.26939 9333 ft 266 kts 335°
2026-05-07 05:05 38.62271 -84.27696 8960 ft 267 kts 335°
2026-05-07 05:05 38.64030 -84.28468 8735 ft 262 kts 335°
2026-05-07 05:06 38.65736 -84.29226 8511 ft 259 kts 335°
2026-05-07 05:06 38.67435 -84.29993 8227 ft 258 kts 336°
2026-05-07 05:06 38.69145 -84.30766 7954 ft 257 kts 336°
2026-05-07 05:06 38.70841 -84.31537 7657 ft 256 kts 336°
2026-05-07 05:07 38.72535 -84.32308 7367 ft 256 kts 337°
2026-05-07 05:07 38.74203 -84.33068 7148 ft 252 kts 337°
2026-05-07 05:07 38.75892 -84.33839 6852 ft 252 kts 337°
2026-05-07 05:07 38.77544 -84.34594 6609 ft 250 kts 338°
2026-05-07 05:08 38.79177 -84.35340 6318 ft 250 kts 338°
2026-05-07 05:08 38.80834 -84.36097 6045 ft 249 kts 338°
2026-05-07 05:08 38.82473 -84.36847 5813 ft 247 kts 339°
2026-05-07 05:08 38.84088 -84.37586 5522 ft 247 kts 339°
2026-05-07 05:09 38.85709 -84.38328 5260 ft 247 kts 339°
2026-05-07 05:09 38.87349 -84.39081 4961 ft 247 kts 339°
2026-05-07 05:09 38.88966 -84.39821 4768 ft 243 kts 339°
2026-05-07 05:09 38.90556 -84.40550 4487 ft 244 kts 339°
2026-05-07 05:10 38.92141 -84.41277 4288 ft 240 kts 339°
2026-05-07 05:10 38.93727 -84.42006 3991 ft 241 kts 339°
2026-05-07 05:10 38.95310 -84.42733 3752 ft 240 kts 339°
2026-05-07 05:10 38.96893 -84.43461 3505 ft 239 kts 339°
2026-05-07 05:11 38.98445 -84.44173 3475 ft 236 kts 339°
2026-05-07 05:11 39.00009 -84.44893 3481 ft 232 kts 339°
2026-05-07 05:11 39.01481 -84.45569 3476 ft 220 kts 339°
2026-05-07 05:11 39.02911 -84.46241 3460 ft 210 kts 334°
2026-05-07 05:12 39.03954 -84.47391 3521 ft 194 kts 301°
2026-05-07 05:12 39.04465 -84.48963 3372 ft 191 kts 280°
2026-05-07 05:12 39.04522 -84.50653 3132 ft 189 kts 274°
2026-05-07 05:12 39.04556 -84.52339 2871 ft 187 kts 274°
2026-05-07 05:13 39.04578 -84.53995 2617 ft 184 kts 274°
2026-05-07 05:13 39.04592 -84.55637 2369 ft 181 kts 273°
2026-05-07 05:13 39.04598 -84.57186 2182 ft 166 kts 273°
2026-05-07 05:13 39.04599 -84.58593 1957 ft 148 kts 273°
2026-05-07 05:14 39.04606 -84.59860 1738 ft 134 kts 274°
2026-05-07 05:14 39.04613 -84.61041 1563 ft 131 kts 273°
2026-05-07 05:14 39.04618 -84.62218 1391 ft 134 kts 272°
2026-05-07 05:14 39.04614 -84.63435 1208 ft 135 kts 272°
2026-05-07 05:15 39.04621 -84.64638 1023 ft 136 kts 271°
2026-05-07 05:15 39.04626 -84.65860 875 ft 135 kts 270°
2026-05-07 05:15 39.04630 -84.66867 870 ft 79 kts 270°
2026-05-07 05:15 39.04631 -84.67257 875 ft 10 kts 268°
2026-05-07 05:16 39.04590 -84.67328 876 ft 11 kts 200°
2026-05-07 05:16 39.04524 -84.67287 874 ft 13 kts 100°
2026-05-07 05:16 39.04522 -84.67150 871 ft 17 kts 90°
2026-05-07 05:16 39.04522 -84.66975 869 ft 21 kts 90°
2026-05-07 05:17 39.04521 -84.66766 866 ft 25 kts 90°
2026-05-07 05:17 39.04520 -84.66527 865 ft 27 kts 90°
2026-05-07 05:17 39.04519 -84.66283 865 ft 25 kts 90°
2026-05-07 05:17 39.04518 -84.66079 869 ft 20 kts 89°
2026-05-07 05:18 39.04493 -84.65933 871 ft 16 kts 121°
2026-05-07 05:18 39.04464 -84.65799 875 ft 15 kts 90°
2026-05-07 05:18 39.04463 -84.65662 879 ft 15 kts 90°
2026-05-07 05:18 39.04463 -84.65517 882 ft 17 kts 90°
2026-05-07 05:19 39.04462 -84.65344 887 ft 20 kts 90°
2026-05-07 05:19 39.04462 -84.65158 892 ft 20 kts 90°
2026-05-07 05:19 39.04460 -84.65033 895 ft 10 kts 100°
2026-05-07 05:19 39.04410 -84.64987 896 ft 10 kts 180°
2026-05-07 05:20 39.04324 -84.64990 896 ft 15 kts 180°
2026-05-07 05:20 39.04183 -84.64990 894 ft 24 kts 180°
2026-05-07 05:20 39.03998 -84.64991 892 ft 27 kts 180°
2026-05-07 05:20 39.03805 -84.64992 889 ft 29 kts 180°
2026-05-07 05:21 39.03619 -84.64993 888 ft 26 kts 180°
2026-05-07 05:21 39.03253 -84.64995 890 ft 26 kts 179°
2026-05-07 05:21 39.03072 -84.64996 894 ft 24 kts 180°
2026-05-07 05:22 39.02966 -84.65003 896 ft 9 kts 208°
2026-05-07 05:22 39.02949 -84.65074 897 ft 9 kts 272°
2026-05-07 05:22 39.02966 -84.65153 896 ft 8 kts 322°
2026-05-07 05:22 39.03033 -84.65160 894 ft 12 kts
2026-05-07 05:23 39.03119 -84.65159 892 ft 11 kts 360°
2026-05-07 05:23 39.03169 -84.65205 890 ft 4 kts 296°
2026-05-07 05:23 39.03181 -84.65233 889 ft 0 kts 298°